Weather History for Brunswick, GA

Change the Weather History Date:

Monday, November 5, 2012

  Actual Average Record
Temperature  
Mean Temperature 62 °F -  
Max Temperature 71 °F 74 °F 140 °F (2004)
Min Temperature 53 °F 53 °F 37 °F (1967)
Degree Days  
Heating Degree Days 3    
Growing Degree Days 12 (Base 50)    
Moisture  
Dew Point 56 °F    
Average Humidity 79    
Maximum Humidity 100    
Minimum Humidity 53    
Precipitation  
Precipitation 0.00 in - - ()
Sea Level Pressure  
Sea Level Pressure 30.00 in    
Wind  
Wind Speed 5 mph (NNW)    
Max Wind Speed 14 mph    
Max Gust Speed 20 mph    
Visibility 10 miles    
Events      
Averages and records for this station are not official NWS values.
T = Trace of Precipitation, MM = Missing Value Source: NWS Daily Summary

Daily Weather History Graph

Daily Weather History Graph

Search for Another Location

Airport:

Trip Planner

Search our weather history database for the weather conditions in past years. The results will help you decide how hot, cold, wet, or windy it might be!

Date:

Astronomy

Nov. 05, 2012 Rise Set
Actual Time 6:45 AM EST 5:33 PM EST
Civil Twilight 6:19 AM EST 5:58 PM EST
Nautical Twilight 5:51 AM EST 6:27 PM EST
Astronomical Twilight 5:22 AM EST 6:55 PM EST
Moon 11:09 PM EST (11/5) 12:02 PM EST (11/5)
Length of Visible Light 11h 38m
Length of Day
10h 48m
Waning Gibbous, 63% of the Moon is Illuminated
Nov 5
Waning Gibbous
Nov 6
Last Quarter
Nov 13
New
Nov 20
First Quarter
Nov 28
Full

Hourly Weather History & Observations

Time (EST) Temp. Dew Point Humidity Pressure Visibility Wind Dir Wind Speed Gust Speed Precip Events Conditions
12:15 AM 71.6 °F 64.4 °F 78% 29.96 in 10.0 mi WSW 8.1 mph - N/A   Scattered Clouds
12:35 AM 71.6 °F 64.4 °F 78% 29.96 in 10.0 mi WSW 8.1 mph - N/A   Mostly Cloudy
12:55 AM 69.8 °F 64.4 °F 83% 29.96 in 10.0 mi WSW 4.6 mph - N/A   Mostly Cloudy
1:15 AM 69.8 °F 64.4 °F 83% 29.95 in 10.0 mi WSW 5.8 mph - N/A   Scattered Clouds
1:35 AM 69.8 °F 64.4 °F 83% 29.96 in 10.0 mi West 4.6 mph - N/A   Scattered Clouds
1:55 AM 68.0 °F 64.4 °F 88% 29.96 in 10.0 mi WSW 5.8 mph - N/A   Clear
2:15 AM 68.0 °F 64.4 °F 88% 29.96 in 10.0 mi West 4.6 mph - N/A   Scattered Clouds
2:35 AM 68.0 °F 64.4 °F 88% 29.96 in 10.0 mi West 4.6 mph - N/A   Clear
2:55 AM 68.0 °F 64.4 °F 88% 29.96 in 10.0 mi West 4.6 mph - N/A   Clear
3:15 AM 66.2 °F 64.4 °F 94% 29.96 in 10.0 mi West 3.5 mph - N/A   Clear
3:35 AM 66.2 °F 62.6 °F 88% 29.96 in 10.0 mi WNW 3.5 mph - N/A   Clear
3:55 AM 64.4 °F 62.6 °F 94% 29.95 in 10.0 mi West 3.5 mph - N/A   Clear
4:15 AM 64.4 °F 62.6 °F 94% 29.96 in 10.0 mi WNW 3.5 mph - N/A   Clear
4:35 AM 62.6 °F 60.8 °F 94% 29.96 in 10.0 mi WNW 3.5 mph - N/A   Clear
4:55 AM 62.6 °F 60.8 °F 94% 29.97 in 10.0 mi Calm Calm - N/A   Clear
5:15 AM 62.6 °F 59.0 °F 88% 29.97 in 10.0 mi Calm Calm - N/A   Clear
5:35 AM 62.6 °F 59.0 °F 88% 29.98 in 10.0 mi WNW 4.6 mph - N/A   Clear
5:55 AM 60.8 °F 59.0 °F 94% 29.98 in 10.0 mi WNW 3.5 mph - N/A   Clear
6:15 AM 60.8 °F 57.2 °F 88% 29.99 in 10.0 mi WNW 3.5 mph - N/A   Clear
6:35 AM 60.8 °F 55.4 °F 82% 29.99 in 10.0 mi West 3.5 mph - N/A   Clear
6:55 AM 59.0 °F 55.4 °F 88% 30.00 in 10.0 mi Calm Calm - N/A   Clear
7:15 AM 59.0 °F 55.4 °F 88% 30.00 in 10.0 mi WNW 3.5 mph - N/A   Clear
7:35 AM 60.8 °F 55.4 °F 82% 30.01 in 10.0 mi WNW 3.5 mph - N/A   Clear
7:55 AM 60.8 °F 55.4 °F 82% 30.02 in 10.0 mi NW 4.6 mph - N/A   Clear
8:15 AM 60.8 °F 53.6 °F 77% 30.02 in 10.0 mi NW 6.9 mph - N/A   Clear
8:35 AM 60.8 °F 53.6 °F 77% 30.03 in 10.0 mi NW 5.8 mph - N/A   Clear
8:55 AM 62.6 °F 53.6 °F 72% 30.03 in 10.0 mi NNW 5.8 mph - N/A   Clear
9:15 AM 64.4 °F 53.6 °F 68% 30.03 in 10.0 mi NNW 3.5 mph - N/A   Clear
9:35 AM 64.4 °F 53.6 °F 68% 30.03 in 10.0 mi NNW 5.8 mph - N/A   Clear
9:55 AM 64.4 °F 51.8 °F 64% 30.03 in 10.0 mi WNW 4.6 mph - N/A   Clear
10:15 AM 68.0 °F 51.8 °F 56% 30.03 in 10.0 mi North 6.9 mph - N/A   Clear
10:35 AM 68.0 °F 51.8 °F 56% 30.03 in 10.0 mi NNW 5.8 mph - N/A   Clear
10:55 AM 68.0 °F 51.8 °F 56% 30.03 in 10.0 mi NW 4.6 mph - N/A   Clear
11:15 AM 69.8 °F 51.8 °F 53% 30.02 in 10.0 mi WNW 5.8 mph - N/A   Clear
11:35 AM 69.8 °F 51.8 °F 53% 30.02 in 10.0 mi North 4.6 mph - N/A   Clear
11:55 AM 69.8 °F 51.8 °F 53% 30.02 in 10.0 mi NNW 3.5 mph - N/A   Clear
12:15 PM 69.8 °F 53.6 °F 56% 30.01 in 10.0 mi North 6.9 mph - N/A   Clear
12:35 PM 71.6 °F 53.6 °F 53% 30.00 in 10.0 mi North 6.9 mph - N/A   Scattered Clouds
12:55 PM 68.0 °F 55.4 °F 64% 30.00 in 10.0 mi NE 6.9 mph 16.1 mph N/A   Scattered Clouds
1:15 PM 68.0 °F 55.4 °F 64% 30.00 in 10.0 mi NE 9.2 mph - N/A   Scattered Clouds
1:35 PM 69.8 °F 57.2 °F 64% 30.00 in 10.0 mi NNE 9.2 mph - N/A   Scattered Clouds
1:55 PM 68.0 °F 55.4 °F 64% 29.99 in 10.0 mi NNE 9.2 mph - N/A   Clear
2:15 PM 68.0 °F 55.4 °F 64% 29.98 in 7.0 mi NE 13.8 mph 19.6 mph N/A   Clear
2:35 PM 66.2 °F 55.4 °F 68% 29.99 in 5.0 mi NE 11.5 mph - N/A   Clear
2:55 PM 64.4 °F 55.4 °F 73% 29.98 in 7.0 mi NE 10.4 mph - N/A   Scattered Clouds
3:15 PM 64.4 °F 55.4 °F 73% 29.99 in 10.0 mi NE 11.5 mph 16.1 mph N/A   Scattered Clouds
3:35 PM 64.4 °F 53.6 °F 68% 29.99 in 10.0 mi NE 11.5 mph - N/A   Scattered Clouds
3:55 PM 64.4 °F 53.6 °F 68% 30.00 in 10.0 mi NNE 10.4 mph - N/A   Clear
4:15 PM 64.4 °F 53.6 °F 68% 30.00 in 10.0 mi NE 9.2 mph - N/A   Clear
4:35 PM 64.4 °F 51.8 °F 64% 30.00 in 10.0 mi NE 9.2 mph - N/A   Clear
4:55 PM 62.6 °F 53.6 °F 72% 30.00 in 10.0 mi NE 8.1 mph - N/A   Clear
5:15 PM 62.6 °F 53.6 °F 72% 30.00 in 10.0 mi ENE 9.2 mph - N/A   Clear
5:35 PM 60.8 °F 51.8 °F 72% 30.01 in 10.0 mi NE 5.8 mph - N/A   Clear
5:55 PM 60.8 °F 51.8 °F 72% 30.02 in 10.0 mi NE 6.9 mph - N/A   Clear
6:15 PM 59.0 °F 51.8 °F 77% 30.02 in 10.0 mi NE 6.9 mph - N/A   Clear
6:35 PM 59.0 °F 51.8 °F 77% 30.02 in 10.0 mi NNE 5.8 mph - N/A   Clear
6:55 PM 57.2 °F 51.8 °F 82% 30.03 in 10.0 mi NNE 4.6 mph - N/A   Clear
7:15 PM 57.2 °F 51.8 °F 82% 30.03 in 10.0 mi NNE 5.8 mph - N/A   Clear
7:35 PM 55.4 °F 51.8 °F 88% 30.02 in 10.0 mi NE 5.8 mph - N/A   Clear
7:55 PM 57.2 °F 51.8 °F 82% 30.03 in 10.0 mi NE 3.5 mph - N/A   Clear
8:15 PM 55.4 °F 51.8 °F 88% 30.03 in 10.0 mi Calm Calm - N/A   Clear
8:35 PM 55.4 °F 51.8 °F 88% 30.03 in 10.0 mi Calm Calm - N/A   Clear
8:55 PM 53.6 °F 51.8 °F 94% 30.03 in 10.0 mi Calm Calm - N/A   Clear
9:15 PM 53.6 °F 51.8 °F 94% 30.03 in 10.0 mi Calm Calm - N/A   Clear
9:35 PM 53.6 °F 51.8 °F 94% 30.02 in 10.0 mi East 3.5 mph - N/A   Clear
9:55 PM 53.6 °F 51.8 °F 94% 30.02 in 10.0 mi Calm Calm - N/A   Clear
10:15 PM 53.6 °F 53.6 °F 100% 30.01 in 10.0 mi ENE 3.5 mph - N/A   Clear
10:35 PM 55.4 °F 53.6 °F 94% 30.01 in 10.0 mi Calm Calm - N/A   Clear
10:55 PM 53.6 °F 53.6 °F 100% 30.01 in 10.0 mi Calm Calm - N/A   Clear
11:15 PM 53.6 °F 53.6 °F 100% 30.00 in 10.0 mi Calm Calm - N/A   Clear
11:35 PM 53.6 °F 51.8 °F 94% 29.99 in 10.0 mi Calm Calm - N/A   Clear
11:55 PM 53.6 °F 51.8 °F 94% 29.99 in 10.0 mi Calm Calm - N/A   Clear